GW0265 Weather Reports


time (UTC)temp
C
wind
direction
speed
KPH
gust
KPH
rain 1hr
cm
rain 24hr
cm
rain mn
cm
humidity
%
barometer
mb
20260503220119 28 42 4.8 20.9 0.00 0.00 0.00 29 1011.6
20260503215108 27 49 4.8 20.9 0.00 0.00 0.00 30 1011.7
20260503214102 27 30 8.0 20.9 0.00 0.00 0.00 29 1011.9
20260503213104 27 50 4.8 12.9 0.00 0.00 0.00 32 1012.0
20260503212031 27 31 8.0 17.7 0.00 0.00 0.00 31 1012.1
20260503211028 27 51 8.0 19.3 0.00 0.00 0.00 30 1012.3
20260503210037 27 31 11.3 19.3 0.00 0.00 0.00 32 1012.5
20260503205030 27 57 11.3 22.5 0.00 0.00 0.00 30 1012.6
20260503204030 27 18 9.7 22.5 0.00 0.00 0.00 31 1012.7
20260503203002 27 60 6.4 16.1 0.00 0.00 0.00 29 1012.8
20260503200809 27 115 3.2 11.3 0.00 0.00 0.00 31 1012.8
20260503195812 27 122 1.6 16.1 0.00 0.00 0.00 33 1013.1
20260503193659 27 343 1.6 12.9 0.00 0.00 0.00 31 1013.4
20260503191512 26 29 6.4 17.7 0.00 0.00 0.00 34 1013.5
20260503190515 26 65 1.6 12.9 0.00 0.00 0.00 35 1013.6
20260503184401 26 75 0.0 11.3 0.00 0.00 0.00 39 1013.6
20260503183352 26 300 0.0 11.3 0.00 0.00 0.00 43 1013.8
20260503182324 25 40 3.2 11.3 0.00 0.00 0.00 46 1013.9
20260503181251 25 34 0.0 4.8 0.00 0.00 0.00 43 1014.0
20260503180251 25 61 0.0 4.8 0.00 0.00 0.00 45 1014.1
20260503175230 24 14 0.0 3.2 0.00 0.00 0.00 47 1014.2
20260503174232 23 39 0.0 3.2 0.00 0.00 0.00 46 1014.3
20260503150640 14 51 0.0 0.0 0.00 0.00 0.00 78 1015.0
20260503131217 8 70 0.0 0.0 0.00 0.00 0.00 88 1014.8
20260503130148 7 260 0.0 3.2 0.00 0.00 0.00 90 1014.7
20260503110235 8 219 0.0 1.6 0.00 0.00 0.00 90 1014.9
20260503081537 11 63 0.0 0.0 0.00 0.00 0.00 84 1014.7
20260503080601 11 61 0.0 0.0 0.00 0.00 0.00 83 1014.8
20260503072451 11 214 0.0 0.0 0.00 0.00 0.00 84 1014.7
20260503071440 11 217 0.0 0.0 0.00 0.00 0.00 83 1014.8
20260503070428 12 217 0.0 1.6 0.00 0.00 0.00 81 1014.7
20260503060339 14 189 0.0 1.6 0.00 0.00 0.00 75 1014.4
20260503054413 13 205 0.0 0.0 0.00 0.00 0.00 78 1014.4
20260503053405 14 214 0.0 0.0 0.00 0.00 0.00 77 1014.3
20260503050213 15 250 0.0 0.0 0.00 0.00 0.00 74 1014.3
20260503045204 15 208 0.0 0.0 0.00 0.00 0.00 73 1014.2
20260503043008 16 165 0.0 0.0 0.00 0.00 0.00 71 1014.3
20260503042010 16 225 0.0 3.2 0.00 0.00 0.00 72 1014.1
20260503040955 16 204 0.0 0.0 0.00 0.00 0.00 75 1014.0
20260503035926 17 212 0.0 1.6 0.00 0.00 0.00 71 1013.9
20260503034949 17 219 0.0 0.0 0.00 0.00 0.00 71 1013.8
20260503033942 17 7 0.0 0.0 0.00 0.00 0.00 69 1013.6
20260503032915 18 195 0.0 0.0 0.00 0.00 0.00 69 1013.4
20260503031911 18 203 0.0 1.6 0.00 0.00 0.00 65 1013.2
20260503030917 19 210 0.0 0.0 0.00 0.00 0.00 67 1013.1
20260503025849 20 209 0.0 0.0 0.00 0.00 0.00 66 1012.8
20260503024854 20 226 0.0 0.0 0.00 0.00 0.00 65 1012.7
20260503023915 20 226 0.0 0.0 0.00 0.00 0.00 63 1012.6
20260503022920 21 226 0.0 0.0 0.00 0.00 0.00 63 1012.5
20260503021930 21 228 0.0 0.0 0.00 0.00 0.00 60 1012.5
20260503015755 22 212 0.0 0.0 0.00 0.00 0.00 60 1012.4
20260503014801 23 212 0.0 0.0 0.00 0.00 0.00 56 1012.4
20260503013822 24 143 0.0 0.0 0.00 0.00 0.00 48 1012.4
20260503012757 24 143 0.0 0.0 0.00 0.00 0.00 43 1012.4
20260503011753 25 169 0.0 0.0 0.00 0.00 0.00 44 1012.4
20260503010739 25 58 0.0 3.2 0.00 0.00 0.00 38 1012.4
20260503005740 25 147 0.0 0.0 0.00 0.00 0.00 40 1012.4
20260503004717 25 121 0.0 0.0 0.00 0.00 0.00 42 1012.4
20260503003645 25 128 0.0 3.2 0.00 0.00 0.00 38 1012.5
20260503002655 25 127 0.0 0.0 0.00 0.00 0.00 39 1012.4
20260503001622 25 24 0.0 3.2 0.00 0.00 0.00 40 1012.5
20260503000551 25 132 0.0 4.8 0.00 0.00 0.00 39 1012.5
20260502235529 25 30 0.0 6.4 0.00 0.00 0.00 37 1012.5
20260502232230 25 41 6.4 17.7 0.00 0.00 0.00 37 1012.8
20260502230031 25 11 6.4 16.1 0.00 0.00 0.00 37 1013.2
20260502223849 26 34 3.2 17.7 0.00 0.00 0.00 39 1013.3
20260502222830 26 121 1.6 16.1 0.00 0.00 0.00 35 1013.3
20260502221835 25 350 1.6 16.1 0.00 0.00 0.00 37 1013.5
20260502220811 25 40 0.0 8.0 0.00 0.00 0.00 40 1013.6